Tracking 30995 objects as of 6-Jul-2025
HD Live streaming from Space Station
objects crossing your sky now

COSMOS 2251 DEB

Track COSMOS 2251 DEB now!
10-day predictions


NORAD ID: 34971
Int'l Code: 1993-036AFA
Perigee: 666.4 km
Apogee: 764.8 km
Inclination: 74.0 °
Period: 99.0 minutes
Semi major axis: 7086 km
RCS: 0.0097 m2 (small)
Launch date: June 16, 1993
Source: Commonwealth of Independent States (former USSR) (CIS)
Launch site: PLESETSK MISSILE AND SPACE COMPLEX (PKMTR)

Note: This is SATELLITE DEBRIS
Your satellite tracking list
Your tracking list is empty




NASA's NSSDC Master Catalog

Two Line Element Set (TLE):
1 34971U 93036AFA 25185.88052238  .00000448  00000-0  10693-3 0  9990
2 34971  73.9770 230.8168 0069482 133.9614  44.2236 14.55276834638321
Source of the keplerian elements: AFSPC